Kuchera_Ratio
0.0 0.0 0.0 0.0 0.0 0.0 0.0 0.0 0.0 0.0 0.0 0.0 0.0 0.0 0.0 0.0 0.0 0.0 0.0 0.0 0.0 0.0
0.0 0.0 0.0 0.0 0.0 0.0 0.0 0.0 0.0 0.0 0.0 0.0 0.0 0.0 0.0 0.0 0.0 0.0 0.0 0.0 0.0 0.0
0.0 0.0 0.0 0.0 0.0 0.0 0.0 0.0 0.0 0.0 0.0 0.0 0.0 0.0 0.0 0.0 0.0 0.0 0.0 0.0 0.0 0.0
0.0 0.0 0.0 0.0 0.0 0.0 0.0 0.0 0.0 0.0 0.0 0.0 0.0 0.0 0.0 0.0 0.0 0.0 0.0 0.0 0.0 0.0
0.0 0.0 0.0 0.0 0.0 0.0 0.0 0.0 0.0 0.0 0.0 0.0 0.0 0.0 0.0 0.0 0.0 0.0 0.0 0.0 0.0 0.0
0.0 0.0 0.0 0.6 0.0 0.0 0.0 0.0 0.0 0.0 0.0 0.0 0.0 0.0 0.0 0.0 0.0 0.0 0.0 0.0 0.0 0.0
0.0 0.6 1.2 1.0 1.2 1.2 0.6 1.2 1.2 0.8 0.6 0.2 0.0 0.0 0.0 0.0 0.6 0.0 0.0 0.0 0.0 0.0
0.9 0.8 1.0 2.0 2.4 2.6 2.8 2.2 2.4 2.6 2.2 1.2 0.0 0.0 1.2 1.2 1.8 1.6 1.2 0.0 0.0 0.0
0.8 1.2 2.8 4.0 3.8 4.2 5.0 5.0 4.8 4.8 0.6 0.0 0.0 0.0 0.0 0.0 0.6 2.0 2.2 2.8 0.6 0.0
1.0 2.2 4.0 4.4 4.4 5.4 5.6 5.6 5.5 3.0 0.0 0.2 0.0 0.0 0.0 0.4 0.0 3.6 3.6 3.0 2.6 1.2
2.2 3.4 4.6 5.9 4.4 5.2 5.0 4.6 1.8 1.2 0.8 1.4 0.4 0.0 0.2 1.4 0.0 3.2 3.8 3.6 3.4 3.0
2.7 3.8 4.5 4.0 4.8 3.8 2.6 2.6 2.6 0.6 1.0 2.0 3.8 1.2 1.2 1.6 0.4 4.6 6.4 5.0 2.8 3.4
2.2 3.4 3.9 1.8 2.6 1.8 0.6 1.6 2.0 3.0 1.8 1.4 1.6 0.0 0.8 0.6 3.4 7.2 6.2 3.4 2.6 2.8
2.6 3.8 4.0 5.2 1.4 1.8 3.2 2.4 3.4 3.0 2.6 2.0 2.6 1.6 0.8 1.6 4.8 6.4 6.4 6.6 6.8 5.4